This is the latest recevied weather packets stored in our database for station/object N0HEQ. If no packets are shown the sender has not sent any weather packets the latest 10 day(s).
| Time | Temp. | Humidity | Pressure | Rain* | Wind** | Luminosity | Snow |
|---|---|---|---|---|---|---|---|
| 1777999546 | 2.78° C | 97% | 1017.3 hPa | 0 mm | - | 97 W/m² | - |
| 1777999244 | 2.78° C | 97% | 1017.4 hPa | 0 mm | - | 73 W/m² | - |
| 1777998943 | 2.78° C | 97% | 1017.3 hPa | 0 mm | - | 58 W/m² | - |
| 1777998640 | 2.78° C | 97% | 1017.6 hPa | 0 mm | - | 69 W/m² | - |
| 1777998338 | 2.78° C | 97% | 1017.4 hPa | 0 mm | - | 75 W/m² | - |
| 1777998035 | 2.78° C | 97% | 1017.3 hPa | 0 mm | - | 76 W/m² | - |
| 1777997732 | 2.78° C | 97% | 1017.3 hPa | 0 mm | - | 83 W/m² | - |
| 1777997429 | 2.78° C | 97% | 1017.4 hPa | 0 mm | - | 75 W/m² | - |
| 1777997127 | 2.78° C | 97% | 1017.3 hPa | 0 mm | - | 83 W/m² | - |
| 1777996824 | 2.78° C | 97% | 1017.2 hPa | 0 mm | - | 88 W/m² | - |
| 1777996520 | 2.78° C | 97% | 1017.3 hPa | 0 mm | - | 97 W/m² | - |
| 1777996217 | 2.78° C | 97% | 1017.4 hPa | 0 mm | - | 98 W/m² | - |
| 1777995913 | 2.22° C | 97% | 1017.4 hPa | 0 mm | - | 80 W/m² | - |
| 1777995609 | 2.22° C | 97% | 1017.4 hPa | 0 mm | - | 51 W/m² | - |
| 1777995307 | 2.22° C | 97% | 1017.3 hPa | 0 mm | - | 51 W/m² | - |
| 1777995003 | 2.22° C | 97% | 1017.3 hPa | 0 mm | - | 50 W/m² | - |
| 1777994701 | 2.22° C | 97% | 1017.6 hPa | 0 mm | - | 51 W/m² | - |
| 1777994395 | 2.22° C | 97% | 1017.4 hPa | 0 mm | - | 45 W/m² | - |
| 1777994091 | 2.22° C | 97% | 1017.5 hPa | 0 mm | - | 39 W/m² | - |
| 1777993789 | 2.22° C | 97% | 1017.4 hPa | 0 mm | - | 39 W/m² | - |
| 1777993485 | 2.22° C | 97% | 1017.5 hPa | 0 mm | - | 34 W/m² | - |
| 1777993185 | 2.22° C | 97% | 1017.4 hPa | 0 mm | - | 41 W/m² | - |
| 1777992883 | 2.22° C | 97% | 1017.5 hPa | 0 mm | - | 40 W/m² | - |
| 1777992581 | 2.22° C | 97% | 1017.5 hPa | 0 mm | - | 43 W/m² | - |
| 1777992279 | 2.22° C | 97% | 1017.7 hPa | 0 mm | - | 45 W/m² | - |
* Rain latest hour (hover to see other rain measurements)
** Current wind speed in m/s (hover to see current wind gust speed)